Location: ??
(35.1714°N, 128.2806°E)
Time: 20:19:21
(UTC+00:00)

Tiangong - Pass Details

Date: 21 June 2021
Orbit: 373 x 385 km, 41.5° (Epoch: 04 August)

Event Time Altitude Azimuth Distance (km) Brightness Sun altitude
Exits shadow 18:41:36 24° 283° (WNW) 827 2.4 -15.7°
Maximum altitude 18:43:05 44° 342° (NNW) 539 2.0 -15.5°
Drops below altitude 10° 18:46:09 10° 57° (ENE) 1,408 5.2 -15.0°
Sets 18:48:15 0° 64° (ENE) 2,256 6.5 -14.7°
